SCP
0 0 0 0 0 0 0 0 0 0 0 0 0 0 0 0 0 0 0 0 0 0 0 0 0 0 0 0 0 0 0 0 0 0 0 0 0 0 0 0 0 0 0
0 0 0 0 0 0 0 0 0 0 0 0 0 0 0 0 0 0 0 0 0 0 0 0 0 0 0 0 0 0 0 0 0 0 0 0 0 0 0 0 0 0 0
0 0 0 0 0 0 0 0 0 0 0 0 0 0 0 0 0 0 0 0 0 0 0 0 0 0 0 0 0 0 0 0 0 0 0 0 0 0 0 0 0 0 0
0 0 0 0 0 0 0 0 0 0 0 0 0 0 0 0 0 0 0 0 0 0 0 0 0 0 0 0 0 0 0 0 0 0 0 0 0 0 0 0 0 0 0
0 0 0 0 0 0 0 0 0 0 0 0 0 0 0 0 0 0 0 0 0 0 0 0 0 0 0 0 0 0 0 0 0 0 0 0 0 0 0 0 0 0 0
0 0 0 0 0 0 0 0 0 0 0 0 0 0 0 0 0 0 0 0 0 0 0 0 0 0 0 0 0 0 0 0 0 0 0 0 0 0 0 0 0 0 0
0 0 0 0 0 0 0 0 0 0 0 0 0 0 0 0 0 0 0 0 0 0 0 0 0 0 0 0 0 0 0 0 0 0 0 0 0 0 0 0 0 0 0
0 0 0 0 0 0 0 0 0 0 0 0 0 0 0 0 0 0 0 0 0 0 0 0 0 0 0 0 0 0 0 0 0 0 0 0 0 0 0 0 0 0 0
0 0 0 0 0 0 0 0 0 0 0 0 0 0 0 0 0 0 0 0 0 0 0 0 1 1 1 0 0 0 0 0 0 0 0 0 0 0 0 0 0 0 0
0 0 0 0 0 0 0 0 0 0 0 0 0 0 0 0 0 0 0 0 0 0 0 0 1 1 1 1 0 0 0 0 0 0 0 0 0 0 0 0 0 0 0
1 0 0 0 0 0 0 0 0 0 0 0 0 0 0 0 0 0 0 0 0 0 0 0 1 1 1 1 1 0 0 0 0 0 0 0 0 0 0 0 0 0 0
1 1 1 1 1 1 0 1 1 1 1 0 0 0 0 0 0 0 0 0 0 0 0 0 1 1 1 0 0 0 0 0 0 0 0 0 0 0 0 0 0 0 0
1 1 1 1 1 1 1 1 1 1 1 1 1 0 0 0 0 0 0 0 0 0 0 0 0 0 0 0 0 0 0 0 0 0 0 0 0 0 0 0 0 0 0
1 1 1 1 1 1 1 1 1 1 1 1 1 1 1 0 1 1 0 0 0 0 0 0 0 0 0 0 0 0 0 0 0 0 0 0 0 0 0 0 0 0 0
1 1 1 1 1 1 1 1 1 1 1 1 1 1 1 1 1 1 1 1 0 0 0 0 0 0 0 0 0 0 0 0 0 0 0 0 0 0 0 0 0 0 0
1 1 1 1 1 1 1 1 1 1 1 1 1 1 1 1 1 1 1 1 1 0 0 0 0 0 0 0 0 0 0 0 0 0 0 0 0 0 0 0 0 0 0
1 1 1 1 1 1 1 1 1 1 1 1 1 1 1 1 1 1 1 1 1 1 0 0 0 0 0 0 0 0 0 0 0 0 0 0 0 0 0 0 0 0 0
1 1 1 1 1 1 1 1 1 1 1 1 1 1 1 1 1 1 1 1 1 1 1 0 0 0 0 0 0 0 0 0 0 0 0 0 0 0 0 0 0 0 0
1 1 1 1 1 1 1 1 1 1 1 1 1 1 1 1 1 1 1 1 1 1 1 1 0 0 0 0 0 0 0 0 0 0 0 0 0 0 0 0 0 0 0
1 1 1 1 1 1 1 1 1 1 1 1 1 1 1 1 1 1 1 1 1 1 1 1 1 0 0 0 0 0 0 0 0 0 0 0 0 0 0 0 0 0 0
1 1 1 1 1 1 1 1 1 1 1 1 1 1 1 1 1 1 1 1 1 1 1 1 1 0 0 0 0 0 0 0 0 0 0 0 0 0 0 0 0 0 0
1 1 1 1 1 1 1 1 1 1 1 1 1 1 1 1 1 1 0 0 0 0 1 1 1 0 0 0 0 0 0 0 0 0 0 0 0 0 0 0 0 0 0
1 1 1 1 1 1 0 0 0 1 1 1 1 1 1 1 1 1 0 0 0 0 0 0 0 0 0 0 0 0 0 0 0 0 0 0 0 0 0 0 0 0 0
1 1 1 1 1 1 0 0 0 1 1 1 1 1 1 1 1 1 1 0 0 0 0 0 0 0 0 0 0 0 0 0 0 0 0 0 0 0 0 0 0 0 0
1 1 1 1 1 1 0 0 0 1 1 1 1 1 1 1 1 1 0 0 0 0 0 0 0 0 0 0 0 0 0 0 0 0 0 0 0 0 0 0 0 0 0
1 1 1 1 1 1 0 0 0 1 1 1 1 1 1 0 0 0 0 0 0 0 0 0 0 0 0 0 0 0 0 0 0 0 0 0 0 0 0 0 0 0 0
Wind_Speed
2 2 1 0 1 1 2 2 2 2 1 1 1 1 1 1 2 2 4 8 8 7 6 5 5 5 5 5 5 5 5 6 6 6 6 7 7 7 6 6 6 7 7
2 1 1 1 0 1 1 2 2 2 1 1 1 1 1 1 2 2 3 5 8 8 6 6 6 6 6 6 5 5 5 5 5 5 5 6 6 7 7 6 7 7 7
2 1 2 1 1 1 1 1 2 2 2 2 1 1 2 2 2 2 3 3 4 7 8 7 7 6 6 6 5 5 5 5 4 4 5 5 5 6 6 7 6 6 6
2 1 1 2 1 1 1 1 1 1 1 1 1 1 1 2 3 3 3 3 3 4 7 8 8 6 6 6 5 4 4 3 3 4 4 5 5 6 6 6 6 6 6
2 1 1 1 1 1 1 1 2 1 1 0 1 1 1 2 2 2 2 3 3 3 3 5 8 7 6 6 5 4 3 3 3 3 4 4 4 5 5 5 6 5 6
2 1 2 1 1 1 1 1 1 1 1 1 1 0 1 2 2 2 2 2 2 2 2 4 4 5 6 5 4 4 3 3 2 2 3 3 3 3 4 4 5 6 6
2 1 1 1 1 1 1 1 1 1 1 0 0 1 1 1 1 1 1 1 1 1 2 3 2 2 4 5 4 3 3 3 2 2 2 2 2 2 3 4 4 4 5
2 2 1 1 1 1 1 0 0 0 1 1 0 1 0 1 1 1 1 1 1 1 1 2 2 2 2 3 4 4 3 3 3 2 2 2 2 2 3 3 3 4 5
2 1 2 1 1 1 2 1 1 0 0 0 0 0 0 0 1 1 0 1 1 0 1 1 2 2 2 3 4 4 4 3 3 3 2 2 2 2 2 2 3 4 5
2 2 2 2 1 1 1 2 1 1 1 1 0 0 1 0 0 1 1 1 0 0 0 0 1 2 2 3 4 6 6 5 4 4 3 3 2 2 2 2 3 4 5
3 3 3 2 2 1 1 1 1 1 1 1 1 0 0 1 1 0 1 1 1 1 0 1 1 1 2 3 4 6 7 6 5 4 3 3 3 2 2 2 3 3 4
3 3 3 2 2 1 1 1 1 2 1 1 1 1 1 1 1 0 1 1 1 1 1 1 1 1 1 3 4 7 7 6 5 4 4 3 2 2 2 2 2 3 3
2 3 3 3 2 2 2 1 2 2 1 1 1 2 2 2 1 0 1 1 0 1 1 1 1 1 1 3 4 6 5 5 5 4 4 3 2 2 2 1 2 2 3
1 3 3 3 3 2 2 2 2 2 2 2 3 2 2 2 1 1 1 1 1 1 1 1 1 2 2 2 4 4 3 5 5 5 4 4 3 2 2 2 2 2 2
2 2 3 3 3 3 3 2 2 2 2 2 2 2 2 2 2 1 1 1 1 1 1 0 0 1 2 2 4 2 2 4 6 6 5 5 4 4 3 3 3 2 2
1 0 2 3 3 3 2 2 2 2 2 2 2 2 2 2 2 2 2 1 1 1 1 1 0 1 1 2 4 2 2 4 5 6 7 6 5 5 4 4 3 3 2
1 1 1 1 2 2 2 2 2 2 2 2 2 2 2 2 2 2 1 1 1 0 1 1 0 1 1 2 2 2 2 2 3 6 7 7 6 6 5 5 4 3 3
1 1 1 1 2 2 2 2 2 2 2 2 1 1 1 1 1 2 2 2 1 0 0 1 0 0 1 1 2 1 1 1 2 5 8 8 7 7 6 6 5 5 4
2 1 1 1 1 1 1 2 2 2 2 1 1 1 1 1 1 1 2 2 1 1 0 1 1 1 1 1 1 1 1 0 1 3 6 7 8 7 7 7 7 6 6
1 1 1 1 1 1 1 1 2 2 2 2 1 1 2 1 1 1 2 1 1 1 0 1 1 1 1 1 1 1 1 1 1 2 2 4 6 8 8 8 8 7 7
3 2 1 2 2 1 1 1 3 2 2 2 1 1 1 2 1 1 1 1 1 1 1 0 1 0 0 0 1 1 1 1 2 1 1 2 3 3 5 7 8 8 8
2 2 2 2 1 1 1 1 2 2 2 2 2 1 2 3 2 2 1 1 1 1 1 1 1 1 1 1 1 1 1 1 2 1 1 2 3 3 3 4 8 10 10
1 2 2 2 1 1 0 1 2 3 2 2 1 2 2 1 2 2 2 2 2 3 3 2 2 2 2 1 1 2 2 2 2 2 1 2 2 2 3 4 9 11 11
2 2 2 2 2 1 2 1 3 4 3 3 2 1 1 1 1 1 1 1 1 2 3 3 2 3 2 2 2 2 2 2 2 2 1 2 2 2 1 2 7 10 11
2 2 2 2 2 2 2 2 3 3 3 3 3 2 2 2 1 1 1 1 1 1 2 1 2 3 3 4 3 1 2 2 2 2 1 1 1 1 1 2 4 8 9
2 3 3 3 3 2 2 2 3 2 3 3 2 2 1 1 1 2 2 1 2 2 2 2 2 3 4 4 4 3 2 2 2 2 1 1 1 1 1 1 1 2 4
Wind_Direction
96 92 87 91 146 141 144 147 151 148 156 198 199 170 163 168 155 156 146 163 167 173 184 196 203 208 216 218 221 223 228 238 241 236 232 231 231 232 228 224 222 217 214
118 138 144 127 87 106 130 155 159 159 182 174 160 180 180 180 158 158 157 169 179 182 193 202 206 210 216 220 218 217 227 236 234 231 232 233 229 230 226 228 225 217 212
141 161 148 145 161 150 144 161 168 170 176 162 166 181 175 186 174 180 181 172 183 197 205 207 208 208 211 211 213 218 226 224 225 227 225 225 221 224 223 225 227 217 210
135 168 141 135 165 154 161 162 168 170 129 142 181 193 173 176 188 197 192 180 184 195 203 211 209 203 201 207 212 218 219 215 228 233 220 217 217 219 217 218 219 214 205
148 155 119 119 180 147 149 147 114 113 147 200 214 189 196 192 204 203 204 188 181 191 178 190 197 200 200 207 210 212 212 205 216 224 221 215 215 214 213 208 205 205 204
136 131 129 137 167 117 99 88 117 167 206 219 268 301 214 191 196 179 214 188 174 188 172 167 177 191 195 197 200 204 196 188 188 211 205 202 214 215 203 194 199 203 203
158 163 101 145 166 123 134 126 127 174 207 191 358 323 292 219 158 163 207 175 170 185 170 157 163 165 178 182 182 173 167 174 176 176 182 184 182 177 172 174 186 195 193
176 179 161 193 166 160 142 159 179 262 230 160 156 252 283 343 320 224 163 178 170 173 178 164 164 163 165 153 154 160 162 167 170 168 159 154 149 149 164 180 188 189 190
181 239 161 211 200 195 159 192 208 182 279 287 121 153 276 252 285 317 244 163 133 191 211 177 156 158 160 140 153 166 171 170 170 175 156 143 130 132 146 180 185 190 192
188 195 194 197 228 231 157 193 169 234 227 264 262 195 222 198 249 317 323 14 304 251 249 53 115 136 138 136 136 150 166 162 147 149 156 157 158 163 171 190 194 193 190
191 197 197 197 206 221 206 211 156 240 253 271 296 271 266 255 245 219 312 314 290 256 238 184 160 138 147 146 137 139 149 152 154 160 162 167 172 173 180 188 193 187 189
191 195 187 191 201 207 217 212 198 230 267 308 310 302 286 264 275 217 228 246 261 260 223 203 165 140 135 116 123 129 147 156 160 164 168 174 181 179 178 188 194 188 183
175 187 199 188 203 211 214 212 212 241 238 260 276 288 298 280 258 227 251 245 266 286 272 221 139 123 116 104 120 127 146 159 163 166 167 175 178 172 167 158 166 168 166
193 184 194 191 197 206 215 210 220 213 215 234 258 266 284 293 299 246 256 267 288 271 267 260 110 126 112 115 133 151 148 161 170 171 174 181 177 166 158 156 153 155 156
223 185 188 189 197 198 210 210 222 232 211 215 251 255 261 280 290 290 268 243 227 279 302 3 31 119 119 117 144 152 144 163 174 176 178 180 178 172 165 162 155 153 156
302 194 202 196 197 194 204 221 230 230 224 223 242 265 267 281 302 284 274 269 257 228 263 295 248 128 126 124 130 134 137 157 176 180 183 184 185 180 174 168 162 154 150
308 284 206 216 203 195 200 215 224 226 224 234 254 261 267 276 309 304 299 296 291 190 245 284 51 104 92 95 131 160 180 176 171 180 182 184 187 188 186 180 176 168 165
237 253 228 231 229 199 194 215 237 240 232 234 242 259 271 289 317 320 325 308 307 126 141 310 309 155 144 142 154 203 211 169 169 181 187 190 191 193 192 190 188 185 181
214 216 246 260 254 225 207 220 231 249 250 245 238 253 261 276 293 313 299 310 326 342 156 221 246 187 186 153 149 233 261 236 227 184 183 191 198 199 199 198 197 195 193
196 193 198 269 276 269 259 251 240 230 234 230 209 227 240 215 203 269 272 309 328 328 270 224 204 200 204 166 149 177 257 250 257 227 168 191 198 202 206 201 198 197 197
198 197 209 225 242 248 294 299 272 228 224 226 208 215 220 139 155 229 288 337 315 295 284 267 238 251 297 305 211 217 243 268 264 215 187 210 193 197 205 206 203 203 201
201 199 227 238 242 267 343 326 305 282 253 227 210 203 204 171 158 160 188 210 257 254 280 300 287 270 268 271 276 266 258 276 278 231 218 239 194 198 199 195 195 198 204
226 215 229 235 204 180 283 334 319 288 279 267 241 222 237 191 171 184 194 213 244 252 226 221 253 263 259 263 277 282 275 263 270 253 234 242 211 219 216 203 186 192 199
232 224 237 235 220 216 223 245 288 264 260 257 241 212 183 161 240 203 226 226 242 251 235 221 233 252 256 246 252 262 261 273 276 264 222 247 238 231 233 190 196 199 204
233 231 229 228 222 228 227 237 253 251 251 249 232 205 179 187 211 163 208 261 286 285 272 270 233 239 243 243 248 262 262 262 279 275 247 251 263 273 256 232 209 205 210
236 234 225 222 212 213 220 236 249 253 259 264 237 191 146 185 174 167 190 235 263 287 305 302 283 257 240 230 223 222 241 261 279 286 272 282 289 326 294 262 227 202 212